Retour au catalogue

ATLAS 5 CENTAUR DEB

LostHEO
NORAD 46655·DEBRIS·🇺🇸 United States

Lancé Oct 17, 2018 depuis Cape Canaveral Space Force Station

Loading…

Prochains Passages (prochaines 24 heures)

TLE

PériméSource: Space-Track

Époque: Aug 28, 2023, 05:05 UTC

1 46655U 18079CH  23240.21225063 -.00000101  00000-0  00000+0 0  9995
2 46655  12.3162  80.1128 3606401 230.9332  91.0884  2.03711266 21545

Suivez ATLAS 5 CENTAUR DEB en temps réel avec AllMySat

Download on the App Store